Skip Page Navigation
NASA JPL Caltech
NASA Logo - Jet Propulsion Laboratory + View the NASA Portal
+ Near-Earth Object (NEO) Program
Search JPL
JPL Home Earth Solar System Stars & Galaxies Technology
JPL Solar System Dynamics
BODIES ORBITS EPHEMERIDES TOOLS PHYSICAL DATA DISCOVERY FAQ SITE MAP
JPL Small-Body Database Browser
Search: [ help ]  
7079 Baghdad (1986 RR)
Classification: Mars-crossing Asteroid          SPK-ID: 2007079
Ephemeris | Orbit Diagram | Orbital Elements | Physical Parameters | Discovery Circumstances ]

[ hide orbit diagram ]
Orbit Diagram
Note: Make sure you have Java enabled on your browser to see the applet. This applet is provided as a 3D orbit visualization tool. The applet was implemented using 2-body methods, and hence should not be used for determining accurate long-term trajectories (over several years or decades) or planetary encounter circumstances. For accurate long-term ephemerides, please instead use our Horizons system.
Orbit Viewer

Additional Notes: the orbits shown in the applet are color coded. The planets are white lines, and the asteroid/comet is a blue line. The bright white line indicates the portion of the orbit that is above the ecliptic plane, and the darker portion is below the ecliptic plane. Likewise for the asteroid/comet orbit, the light blue indicates the portion above the ecliptic plane, and the dark blue the portion below the ecliptic plane.

Orbit Viewer applet originally written and kindly provided by Osamu Ajiki (AstroArts), and further modified by Ron Baalke (JPL).


Orbital Elements at Epoch 2456400.5 (2013-Apr-18.0) TDB
Reference: JPL 1 (heliocentric ecliptic J2000)
 Element Value Uncertainty (1-sigma)   Units 
e .2961884612738043 4.831e-08  
a 2.285637763664329 1.4453e-08 AU
q 1.608658231415292 1.1412e-07 AU
i 3.878510505891218 8.1245e-06 deg
node 202.829785177116 8.4489e-05 deg
peri 121.2077213015549 8.6474e-05 deg
M 257.5254213773109 1.7184e-05 deg
tp 2456759.771834568321
(2014-Apr-12.27183457)
6.2125e-05 JED
period 1262.14581394686
3.46
1.1972e-05
3.278e-08
d
yr
n .2852285338365486 2.7055e-09 deg/d
Q 2.962617295913365 1.8734e-08 AU
  Orbit Determination Parameters
   # obs. used (total)      739  
   data-arc span      9724 days (26.62 yr)  
   first obs. used      1986-09-05  
   last obs. used      2013-04-20  
   planetary ephem.      DE405  
   SB-pert. ephem.      SB405-CPV-2  
   condition code      0  
   fit RMS      .57141  
   data source      ORB  
   producer      Otto Matic  
   solution date      2013-Apr-29 13:24:53  

Additional Information
 Earth MOID = .600986 AU 
 T_jup = 3.540 
[ show covariance matrix ]

Ephemeris | Orbit Diagram | Orbital Elements | Physical Parameters | Discovery Circumstances ]

Physical Parameter Table
Parameter Symbol Value Units Sigma Reference Notes
absolute magnitude H 14.7 mag n/a PDS3 (MPC 28116)  

7079 Baghdad           Discovered 1986 Sept. 5 by E. W. Elst and V. Ivanova at Smolyan.
Baghdad was founded near one of the foremost cities of old Mesopotamia by the Arab Abbasid dynasty in the eighth century. Its beauty has inspired many poets and musicians, and it is still well known from stories such as Thousand and One Nights.
NOTE: some special characters may not display properly (any characters within {} are an attempt to place the proper accent above a character)
Reference: 20031110/MPCPages.arcLast Updated: 2003-11-12

Alternate Designations
 1986 RR = 1992 EM35 
Ephemeris | Orbit Diagram | Orbital Elements | Physical Parameters | Discovery Circumstances ]
ABOUT SSD CREDITS/AWARDS PRIVACY/COPYRIGHT GLOSSARY LINKS
FirstGov 2013-May-18 12:01 UT
(server date/time)  
NASA Home Page
Site Manager:   Donald K. Yeomans
Webmaster  Alan B. Chamberlin